,,PA_Meas_PMT16A,,PR_Meas_QMR101_102,,RH_Meas_QMH101,,SR_Meas_QMS101,,TA_Meas_QMH101,,GenWind,,GenWind,
time,status,PA,status,PR,status,RH,status,SR,status,TA,status,DirAvg,status,SpdAvg,
2016-06-12, 07:22:04,VALID,918.968,VALID,0,INVALID,114.389,VALID,94.3333,VALID,19.4508,VALID,168,VALID,0,
2016-06-12, 07:23:04,VALID,918.973,VALID,0,INVALID,114.366,VALID,95.5152,VALID,19.4703,VALID,163,VALID,0,
2016-06-12, 07:30:04,VALID,919.141,VALID,0,INVALID,114.214,VALID,104.97,VALID,19.5078,VALID,163,VALID,0,
2016-06-12, 07:31:04,VALID,919.134,VALID,0,INVALID,114.176,VALID,107.011,VALID,19.5468,VALID,169,VALID,0,
2016-06-12, 07:35:04,VALID,919.133,VALID,0,INVALID,114.13,VALID,114.962,VALID,19.6443,VALID,165,VALID,0.204688,
2016-06-12, 07:36:04,VALID,919.166,VALID,0,INVALID,114.092,VALID,117.326,VALID,19.6638,VALID,174,VALID,0.0679687,
2016-06-12, 07:37:04,VALID,919.166,VALID,0,INVALID,113.924,VALID,120.119,VALID,19.7223,VALID,151,VALID,0,
2016-06-12, 07:38:04,VALID,919.161,VALID,0,INVALID,113.818,VALID,122.805,VALID,19.7418,VALID,168,VALID,0.774219,
2016-06-12, 07:39:04,VALID,919.179,VALID,0,INVALID,113.749,VALID,125.706,VALID,19.8003,VALID,172,VALID,0,
2016-06-12, 07:40:04,VALID,919.254,VALID,0,INVALID,113.482,VALID,128.714,VALID,19.8003,VALID,147,VALID,0.00195313,
2016-06-12, 07:41:04,VALID,919.261,VALID,0,INVALID,113.337,VALID,131.615,VALID,19.8378,VALID,145,VALID,0,
2016-06-12, 07:42:04,VALID,919.28,VALID,0,INVALID,113.368,VALID,134.087,VALID,19.8978,VALID,154,VALID,0,
2016-06-12, 07:43:04,VALID,919.297,VALID,0,INVALID,113.238,VALID,136.88,VALID,19.8978,VALID,141,VALID,1.35117,
2016-06-12, 07:44:04,VALID,919.322,VALID,0,INVALID,112.834,VALID,139.029,VALID,19.8978,VALID,162,VALID,0.902344,
2016-06-12, 07:45:04,VALID,919.375,VALID,0,INVALID,112.819,VALID,141.07,VALID,19.9563,VALID,187,VALID,0,
2016-06-12, 07:46:04,VALID,919.364,VALID,0,INVALID,112.567,VALID,142.789,VALID,19.9758,VALID,194,VALID,0,
2016-06-12, 07:47:04,VALID,919.365,VALID,0,INVALID,112.209,VALID,143.864,VALID,19.9548,VALID,161,VALID,0,
2016-06-12, 07:48:04,VALID,919.359,VALID,0,INVALID,112.179,VALID,144.186,VALID,20.0148,VALID,157,VALID,0,
2016-06-12, 07:49:04,VALID,919.386,VALID,0,INVALID,112.034,VALID,144.293,VALID,20.0538,VALID,157,VALID,0,
2016-06-12, 07:50:04,VALID,919.345,VALID,0,INVALID,111.653,VALID,144.293,VALID,20.0538,VALID,157,VALID,0,
2016-06-12, 07:51:04,VALID,919.363,VALID,0,INVALID,111.287,VALID,144.616,VALID,20.0328,VALID,151,VALID,1.5457,
2016-06-12, 07:52:04,VALID,919.366,VALID,0,INVALID,111.37,VALID,145.26,VALID,20.0538,VALID,138,VALID,0,
2016-06-12, 07:53:04,VALID,919.384,VALID,0,INVALID,111.439,VALID,146.442,VALID,20.0928,VALID,180,VALID,0,
2016-06-12, 07:54:04,VALID,919.361,VALID,0,INVALID,111.462,VALID,148.269,VALID,20.1123,VALID,134,VALID,0,
2016-06-12, 07:55:04,VALID,919.373,VALID,0,INVALID,111.447,VALID,149.988,VALID,20.1513,VALID,128,VALID,0,
2016-06-12, 07:56:04,VALID,919.37,VALID,0,INVALID,110.883,VALID,151.492,VALID,20.1513,VALID,153,VALID,0,
2016-06-12, 07:57:04,VALID,919.39,VALID,0,INVALID,110.905,VALID,152.781,VALID,20.2309,VALID,110,VALID,0,
2016-06-12, 07:58:04,VALID,919.419,VALID,0,INVALID,111.569,VALID,153.748,VALID,20.3269,VALID,108,VALID,0,
2016-06-12, 07:59:04,VALID,919.399,VALID,0,INVALID,112.034,VALID,154.715,VALID,20.4244,VALID,108,VALID,0,
2016-06-12, 08:00:04,VALID,919.435,VALID,0,INVALID,111.752,VALID,155.36,VALID,20.4634,VALID,83,VALID,0,
2016-06-12, 08:01:04,VALID,919.433,VALID,0,INVALID,110.555,VALID,156.219,VALID,20.5024,VALID,138,VALID,0,
2016-06-12, 08:02:04,VALID,919.447,VALID,0,INVALID,110.524,VALID,156.864,VALID,20.5804,VALID,121,VALID,0,
2016-06-12, 08:03:04,VALID,919.487,VALID,0,INVALID,109.442,VALID,157.186,VALID,20.5804,VALID,122,VALID,0,
2016-06-12, 08:04:04,VALID,919.462,VALID,0,INVALID,109.175,VALID,157.186,VALID,20.6194,VALID,128,VALID,0,
2016-06-12, 08:05:04,VALID,919.46,VALID,0,INVALID,109.244,VALID,156.542,VALID,20.6194,VALID,118,VALID,0,
2016-06-12, 08:06:04,VALID,919.473,VALID,0,VALID,104,VALID,155.575,VALID,20.6795,VALID,124,VALID,0,
2016-06-12, 08:07:04,VALID,919.52,VALID,0,INVALID,109.419,VALID,154.93,VALID,20.717,VALID,126,VALID,0,
2016-06-12, 08:08:04,VALID,919.504,VALID,0,VALID,104,VALID,154.93,VALID,20.7365,VALID,128,VALID,0,
2016-06-12, 08:09:04,VALID,919.521,VALID,0,INVALID,109.754,VALID,155.79,VALID,20.834,VALID,128,VALID,0,
2016-06-12, 08:10:04,VALID,919.552,VALID,0,INVALID,109.777,VALID,157.509,VALID,20.873,VALID,134,VALID,0,
2016-06-12, 08:11:04,VALID,919.546,VALID,0,INVALID,109.823,VALID,159.98,VALID,20.9316,VALID,135,VALID,0,
2016-06-12, 08:12:04,VALID,919.534,VALID,0,VALID,104,VALID,163.203,VALID,20.9706,VALID,154,VALID,0,
2016-06-12, 08:13:04,VALID,919.515,VALID,0,VALID,104,VALID,167.071,VALID,20.9885,VALID,163,VALID,0,
2016-06-12, 08:14:04,VALID,919.531,VALID,0,VALID,104,VALID,170.509,VALID,21.0681,VALID,164,VALID,0,
2016-06-12, 08:15:04,VALID,919.525,VALID,0,VALID,104,VALID,173.517,VALID,21.0681,VALID,164,VALID,0,
2016-06-12, 08:16:04,VALID,919.508,VALID,0,VALID,104,VALID,175.774,VALID,21.0681,VALID,185,VALID,0,
2016-06-12, 08:17:04,VALID,919.501,VALID,0,VALID,104,VALID,177.17,VALID,21.1071,VALID,166,VALID,0,
2016-06-12, 08:18:04,VALID,919.469,VALID,0,VALID,104,VALID,178.245,VALID,21.1852,VALID,166,VALID,0,
2016-06-12, 08:19:04,VALID,919.49,VALID,0,VALID,104,VALID,179.319,VALID,21.2242,VALID,166,VALID,0,
2016-06-12, 08:20:04,VALID,919.503,VALID,0,VALID,104,VALID,181.038,VALID,21.3412,VALID,167,VALID,0,
2016-06-12, 08:21:04,VALID,919.521,VALID,0,VALID,103.595,VALID,183.187,VALID,21.3608,VALID,167,VALID,0,
2016-06-12, 08:22:04,VALID,919.542,VALID,0,VALID,102.565,VALID,187.592,VALID,21.4193,VALID,167,VALID,0,
2016-06-12, 08:23:04,VALID,919.538,VALID,0,VALID,100.24,VALID,193.394,VALID,21.3591,VALID,153,VALID,0,
2016-06-12, 08:24:04,VALID,919.562,VALID,0,VALID,97.473,VALID,198.444,VALID,21.2811,VALID,187,VALID,0,
2016-06-12, 08:25:04,VALID,919.552,VALID,0,VALID,98.6013,VALID,204.246,VALID,21.2616,VALID,160,VALID,0,
2016-06-12, 08:26:04,VALID,919.58,VALID,0,VALID,101.879,VALID,218.858,VALID,21.2242,VALID,142,VALID,0,
2016-06-12, 08:27:04,VALID,919.579,VALID,0,VALID,104,VALID,209.833,VALID,21.1657,VALID,141,VALID,0,
2016-06-12, 08:28:04,VALID,919.578,VALID,0,VALID,104,VALID,212.411,VALID,21.1836,VALID,153,VALID,0,
2016-06-12, 08:29:04,VALID,919.607,VALID,0,VALID,100.972,VALID,215.957,VALID,21.125,VALID,152,VALID,0,
2016-06-12, 08:30:04,VALID,919.626,VALID,0,VALID,104,VALID,220.039,VALID,21.125,VALID,149,VALID,0,
2016-06-12, 08:31:04,VALID,919.601,VALID,0,VALID,104,VALID,224.982,VALID,21.2242,VALID,149,VALID,0,
2016-06-12, 08:32:04,VALID,919.65,VALID,0,VALID,104,VALID,229.924,VALID,21.2421,VALID,151,VALID,0,
2016-06-12, 08:33:04,VALID,919.641,VALID,0,VALID,104,VALID,234.222,VALID,21.3396,VALID,146,VALID,0,
2016-06-12, 08:34:04,VALID,919.651,VALID,0,VALID,100.499,VALID,238.09,VALID,21.3591,VALID,151,VALID,0.65625,
2016-06-12, 08:35:04,VALID,919.688,VALID,0,VALID,104,VALID,240.883,VALID,21.4567,VALID,171,VALID,0,
2016-06-12, 08:36:04,VALID,919.697,VALID,0,VALID,95.0411,VALID,243.462,VALID,21.5559,VALID,170,VALID,0,
2016-06-12, 08:37:04,VALID,919.685,VALID,0,VALID,100.53,VALID,245.933,VALID,21.6144,VALID,160,VALID,0,
2016-06-12, 08:38:04,VALID,919.722,VALID,0,VALID,101.826,VALID,248.297,VALID,21.6924,VALID,180,VALID,0,
2016-06-12, 08:39:04,VALID,919.718,VALID,0,VALID,89.7505,VALID,251.197,VALID,21.7883,VALID,184,VALID,0,
2016-06-12, 08:40:04,VALID,919.687,VALID,0,VALID,87.1433,VALID,254.636,VALID,21.9249,VALID,187,VALID,0,
2016-06-12, 08:41:04,VALID,919.719,VALID,0,VALID,82.4244,VALID,261.082,VALID,22.0225,VALID,192,VALID,0,
2016-06-12, 08:42:04,VALID,919.704,VALID,0,VALID,79.6647,VALID,262.801,VALID,22.1005,VALID,192,VALID,0,
2016-06-12, 08:43:04,VALID,919.704,VALID,0,VALID,81.5172,VALID,269.355,VALID,22.1981,VALID,194,VALID,0,
2016-06-12, 08:44:04,VALID,919.692,VALID,0,VALID,79.779,VALID,265.487,VALID,22.294,VALID,194,VALID,0,
2016-06-12, 08:45:04,VALID,919.728,VALID,0,VALID,80.427,VALID,263.768,VALID,22.4501,VALID,194,VALID,0,
2016-06-12, 08:46:04,VALID,919.714,VALID,0,VALID,80.145,VALID,259.363,VALID,22.647,VALID,192,VALID,0,
2016-06-12, 08:47:04,VALID,919.74,VALID,0,VALID,79.7257,VALID,257.536,VALID,22.7623,VALID,191,VALID,0,
2016-06-12, 08:48:04,VALID,919.751,VALID,0,VALID,80.3965,VALID,257.429,VALID,22.8014,VALID,137,VALID,0,
2016-06-12, 08:49:04,VALID,919.754,VALID,0,VALID,81.8221,VALID,257.966,VALID,22.7623,VALID,75,VALID,0,
2016-06-12, 08:50:04,VALID,919.76,VALID,0,VALID,84.4217,VALID,255.925,VALID,22.7428,VALID,104,VALID,0,
2016-06-12, 08:51:04,VALID,919.768,VALID,0,VALID,82.8589,VALID,253.883,VALID,22.7641,VALID,109,VALID,0,
2016-06-12, 08:52:04,VALID,919.773,VALID,0,VALID,83.1715,VALID,252.809,VALID,22.7836,VALID,116,VALID,0,
2016-06-12, 08:53:04,VALID,919.787,VALID,0,VALID,80.6634,VALID,253.024,VALID,22.8031,VALID,137,VALID,0,
2016-06-12, 08:54:04,VALID,919.789,VALID,0,VALID,77.8961,VALID,250.983,VALID,22.7641,VALID,122,VALID,0,
2016-06-12, 08:55:04,VALID,919.794,VALID,0,VALID,77.6902,VALID,250.768,VALID,22.686,VALID,169,VALID,0,
2016-06-12, 08:56:04,VALID,919.776,VALID,0,VALID,79.1616,VALID,251.412,VALID,22.5867,VALID,157,VALID,0,
2016-06-12, 08:57:04,VALID,919.782,VALID,0,VALID,80.6024,VALID,260.975,VALID,22.6079,VALID,150,VALID,0,
2016-06-12, 08:58:04,VALID,919.815,VALID,0,VALID,79.253,VALID,270.859,VALID,22.647,VALID,149,VALID,0,
2016-06-12, 08:59:04,VALID,919.811,VALID,0,VALID,79.9315,VALID,283.537,VALID,22.725,VALID,149,VALID,0,
2016-06-12, 09:00:04,VALID,919.805,VALID,0,VALID,77.8579,VALID,305.778,VALID,22.8031,VALID,178,VALID,0,
2016-06-12, 09:01:04,VALID,919.797,VALID,0,VALID,75.8225,VALID,312.654,VALID,22.9007,VALID,183,VALID,0,
2016-06-12, 09:02:04,VALID,919.809,VALID,0,VALID,75.2279,VALID,322.216,VALID,22.9983,VALID,202,VALID,0,
2016-06-12, 09:03:04,VALID,919.785,VALID,0,VALID,74.8086,VALID,300.62,VALID,23.0959,VALID,203,VALID,0,
2016-06-12, 09:04:04,VALID,919.759,VALID,0,VALID,72.3767,VALID,296.323,VALID,23.2112,VALID,202,VALID,0,
2016-06-12, 09:05:04,VALID,919.754,VALID,0,VALID,71.7135,VALID,292.562,VALID,23.3088,VALID,202,VALID,0,
2016-06-12, 09:06:04,VALID,919.772,VALID,0,VALID,72.9027,VALID,295.785,VALID,23.4454,VALID,202,VALID,0,
2016-06-12, 09:07:04,VALID,919.78,VALID,0,VALID,73.8709,VALID,303.951,VALID,23.543,VALID,197,VALID,0,
2016-06-12, 09:08:04,VALID,919.782,VALID,0,VALID,69.8305,VALID,319.53,VALID,23.6992,VALID,197,VALID,0,
2016-06-12, 09:09:04,VALID,919.773,VALID,0,VALID,68.1457,VALID,336.183,VALID,23.701,VALID,200,VALID,0,
2016-06-12, 09:10:04,VALID,919.807,VALID,0,VALID,68.7403,VALID,355.523,VALID,23.5821,VALID,200,VALID,0,
2016-06-12, 09:11:04,VALID,919.814,VALID,0,VALID,69.2511,VALID,440.724,VALID,23.5821,VALID,201,VALID,0,
2016-06-12, 09:12:04,VALID,919.8,VALID,0,VALID,66.9412,VALID,436.856,VALID,23.6406,VALID,201,VALID,0,
2016-06-12, 09:13:04,VALID,919.78,VALID,0,VALID,66.4228,VALID,467.262,VALID,23.795,VALID,201,VALID,0,
2016-06-12, 09:14:04,VALID,919.806,VALID,0,VALID,66.1408,VALID,431.699,VALID,23.9335,VALID,200,VALID,0,
2016-06-12, 09:15:04,VALID,919.801,VALID,0,VALID,64.1206,VALID,494.444,VALID,24.1677,VALID,200,VALID,0,
2016-06-12, 09:16:04,VALID,919.795,VALID,0,VALID,65.1802,VALID,616.39,VALID,24.3435,VALID,200,VALID,0,
2016-06-12, 09:17:04,VALID,919.797,VALID,0,VALID,63.8385,VALID,443.195,VALID,24.5387,VALID,200,VALID,0,
2016-06-12, 09:18:04,VALID,919.802,VALID,0,VALID,63.1066,VALID,467.906,VALID,24.6968,VALID,112,VALID,0,
2016-06-12, 09:19:04,VALID,919.815,VALID,0,VALID,64.2806,VALID,337.473,VALID,24.7944,VALID,112,VALID,0,
2016-06-12, 09:20:04,VALID,919.856,VALID,0,VALID,62.7331,VALID,336.291,VALID,24.9097,VALID,112,VALID,0,
2016-06-12, 09:21:04,VALID,919.847,VALID,0,VALID,62.5959,VALID,383.457,VALID,24.9664,VALID,112,VALID,0,
2016-06-12, 09:22:04,VALID,919.837,VALID,0,VALID,65.5461,VALID,320.175,VALID,25.0269,VALID,108,VALID,0,
2016-06-12, 09:23:04,VALID,919.837,VALID,0,VALID,64.6466,VALID,329.415,VALID,25.0855,VALID,44,VALID,0,
2016-06-12, 09:24:04,VALID,919.827,VALID,0,VALID,67.4901,VALID,316.199,VALID,24.8316,VALID,50,VALID,0,
2016-06-12, 09:25:04,VALID,919.833,VALID,0,VALID,68.626,VALID,313.513,VALID,24.6949,VALID,28,VALID,0,
2016-06-12, 09:26:04,VALID,919.865,VALID,0,VALID,71.6372,VALID,349.721,VALID,24.4801,VALID,31,VALID,0,
2016-06-12, 09:27:04,VALID,919.825,VALID,0,VALID,69.2664,VALID,309.86,VALID,24.3416,VALID,31,VALID,0,
2016-06-12, 09:28:04,VALID,919.839,VALID,0,VALID,70.448,VALID,344.886,VALID,24.283,VALID,34,VALID,0,
2016-06-12, 09:29:04,VALID,919.822,VALID,0,VALID,74.5189,VALID,288.694,VALID,24.2049,VALID,39,VALID,0,
2016-06-12, 09:30:04,VALID,919.877,VALID,0,VALID,77.1947,VALID,298.472,VALID,24.1073,VALID,18,VALID,0,
2016-06-12, 09:31:04,VALID,919.878,VALID,0,VALID,76.5238,VALID,322.001,VALID,23.9725,VALID,58,VALID,0,
2016-06-12, 09:32:04,VALID,919.84,VALID,0,VALID,76.8364,VALID,360.573,VALID,23.795,VALID,76,VALID,0,
2016-06-12, 09:33:04,VALID,919.875,VALID,0,VALID,76.5086,VALID,349.721,VALID,23.7382,VALID,15,VALID,0,
2016-06-12, 09:34:04,VALID,919.842,VALID,0,VALID,77.2862,VALID,412.789,VALID,23.7578,VALID,18,VALID,0,
2016-06-12, 09:35:04,VALID,919.832,VALID,0,VALID,76.9126,VALID,393.02,VALID,23.8145,VALID,64,VALID,0,
2016-06-12, 09:36:04,VALID,919.797,VALID,0,VALID,77.1718,VALID,409.995,VALID,23.6974,VALID,69,VALID,0,
2016-06-12, 09:37:04,VALID,919.801,VALID,0,VALID,78.445,VALID,375.077,VALID,23.6388,VALID,53,VALID,0,
2016-06-12, 09:38:04,VALID,919.801,VALID,0,VALID,76.3561,VALID,447.278,VALID,23.5803,VALID,39,VALID,0,
2016-06-12, 09:39:04,VALID,919.79,VALID,0,VALID,78.2315,VALID,409.458,VALID,23.6584,VALID,21,VALID,0,
2016-06-12, 09:40:04,VALID,919.789,VALID,0,VALID,79.7028,VALID,412.896,VALID,23.7755,VALID,23,VALID,0,
2016-06-12, 09:41:04,VALID,919.814,VALID,0,VALID,75.7158,VALID,370.672,VALID,23.8926,VALID,43,VALID,0,
2016-06-12, 09:42:04,VALID,919.804,VALID,0,VALID,76.7373,VALID,358.639,VALID,23.9512,VALID,39,VALID,0,
2016-06-12, 09:43:04,VALID,919.832,VALID,0,VALID,72.8494,VALID,404.516,VALID,23.9707,VALID,54,VALID,0,
2016-06-12, 09:44:04,VALID,919.865,VALID,0,VALID,71.2179,VALID,718.244,VALID,24.0488,VALID,68,VALID,0,
2016-06-12, 09:45:04,VALID,919.855,VALID,0,VALID,72.0794,VALID,450.931,VALID,24.244,VALID,45,VALID,0,
2016-06-12, 09:46:04,VALID,919.911,VALID,0,VALID,70.4785,VALID,459.956,VALID,24.4002,VALID,31,VALID,0,
2016-06-12, 09:47:04,VALID,919.913,VALID,0,VALID,70.6691,VALID,418.483,VALID,24.4783,VALID,55,VALID,0,
2016-06-12, 09:48:04,VALID,919.938,VALID,0,VALID,71.8888,VALID,460.6,VALID,24.4978,VALID,120,VALID,0,
2016-06-12, 09:49:04,VALID,919.954,VALID,0,VALID,68.3287,VALID,447.492,VALID,24.4587,VALID,107,VALID,0,
2016-06-12, 09:50:04,VALID,919.937,VALID,0,VALID,66.7659,VALID,413.434,VALID,24.3611,VALID,115,VALID,0,
2016-06-12, 09:51:04,VALID,919.931,VALID,0,VALID,68.4964,VALID,512.494,VALID,24.5368,VALID,115,VALID,0,
2016-06-12, 09:52:04,VALID,919.928,VALID,0,VALID,66.9717,VALID,414.615,VALID,24.7321,VALID,116,VALID,0,
2016-06-12, 09:53:04,VALID,919.905,VALID,0,VALID,66.5067,VALID,468.443,VALID,24.7907,VALID,116,VALID,0,
2016-06-12, 09:54:04,VALID,919.925,VALID,0,VALID,70.0668,VALID,459.311,VALID,24.8883,VALID,121,VALID,0,
2016-06-12, 09:55:04,VALID,919.894,VALID,0,VALID,68.8852,VALID,499.172,VALID,24.9469,VALID,153,VALID,0,
2016-06-12, 09:56:04,VALID,919.912,VALID,0,VALID,69.9143,VALID,432.88,VALID,25.1012,VALID,152,VALID,0,
2016-06-12, 09:57:04,VALID,919.901,VALID,0,VALID,69.739,VALID,458.237,VALID,25.2574,VALID,148,VALID,0,
2016-06-12, 09:58:04,VALID,919.916,VALID,0,VALID,69.2511,VALID,566,VALID,25.3746,VALID,168,VALID,0,
2016-06-12, 09:59:04,VALID,919.918,VALID,0,VALID,65.9654,VALID,536.131,VALID,25.3746,VALID,267,VALID,0,
2016-06-12, 10:00:04,VALID,919.931,VALID,0,VALID,67.6502,VALID,556.867,VALID,25.1012,VALID,268,VALID,0,
2016-06-12, 10:01:04,VALID,919.939,VALID,0,VALID,67.147,VALID,666.457,VALID,24.9664,VALID,268,VALID,0,
2016-06-12, 10:02:04,VALID,919.911,VALID,0,VALID,66.0416,VALID,431.699,VALID,24.945,VALID,292,VALID,0,
2016-06-12, 10:03:04,VALID,919.948,VALID,0,VALID,65.1954,VALID,588.778,VALID,24.9645,VALID,299,VALID,0,
2016-06-12, 10:04:04,VALID,919.936,VALID,0,VALID,65.1573,VALID,684.83,VALID,25.1012,VALID,299,VALID,0,
2016-06-12, 10:05:04,VALID,919.904,VALID,0,VALID,62.0394,VALID,681.392,VALID,25.2183,VALID,300,VALID,0,
2016-06-12, 10:06:04,VALID,919.904,VALID,0,VALID,63.6708,VALID,619.828,VALID,25.3374,VALID,299,VALID,0,
2016-06-12, 10:07:04,VALID,919.925,VALID,0,VALID,63.3201,VALID,596.943,VALID,25.4937,VALID,91,VALID,0,
2016-06-12, 10:08:04,VALID,919.932,VALID,0,VALID,61.7878,VALID,615.638,VALID,25.3374,VALID,91,VALID,0,
2016-06-12, 10:09:04,VALID,919.891,VALID,0,VALID,62.2452,VALID,531.511,VALID,25.1812,VALID,91,VALID,0,
2016-06-12, 10:10:04,VALID,919.902,VALID,0,VALID,65.165,VALID,654.424,VALID,25.2007,VALID,91,VALID,0,
2016-06-12, 10:11:04,VALID,919.879,VALID,0,VALID,62.8093,VALID,668.069,VALID,25.3746,VALID,91,VALID,0,
2016-06-12, 10:12:04,VALID,919.863,VALID,0,VALID,63.5717,VALID,703.095,VALID,25.5718,VALID,91,VALID,0,
2016-06-12, 10:13:04,VALID,919.863,VALID,0,VALID,62.0165,VALID,724.583,VALID,25.7651,VALID,91,VALID,0,
2016-06-12, 10:14:04,VALID,919.842,VALID,0,VALID,61.3228,VALID,739.088,VALID,25.9019,VALID,357,VALID,0,
2016-06-12, 10:15:04,VALID,919.839,VALID,0,VALID,62.6111,VALID,507.445,VALID,25.9038,VALID,306,VALID,0,
2016-06-12, 10:16:04,VALID,919.837,VALID,0,VALID,62.3367,VALID,699.334,VALID,26.1167,VALID,331,VALID,0,
2016-06-12, 10:17:04,VALID,919.8,VALID,0,VALID,62.4968,VALID,765.948,VALID,26.271,VALID,306,VALID,0,
2016-06-12, 10:18:04,VALID,919.792,VALID,0,VALID,60.7586,VALID,773.899,VALID,26.019,VALID,290,VALID,0,
2016-06-12, 10:19:04,VALID,919.791,VALID,0,VALID,62.3062,VALID,780.775,VALID,25.8823,VALID,290,VALID,0,
2016-06-12, 10:20:04,VALID,919.76,VALID,0,VALID,63.0609,VALID,759.072,VALID,26.019,VALID,290,VALID,0,
2016-06-12, 10:21:04,VALID,919.759,VALID,0,VALID,63.4954,VALID,746.179,VALID,25.9585,VALID,293,VALID,0,
2016-06-12, 10:22:04,VALID,919.716,VALID,0,VALID,62.39,VALID,772.18,VALID,25.9214,VALID,308,VALID,0,
2016-06-12, 10:23:04,VALID,919.732,VALID,0,VALID,62.1003,VALID,630.035,VALID,25.9409,VALID,295,VALID,0,
2016-06-12, 10:24:04,VALID,919.708,VALID,0,VALID,65.0201,VALID,738.765,VALID,25.6655,VALID,292,VALID,0,
2016-06-12, 10:25:04,VALID,919.717,VALID,0,VALID,64.6237,VALID,599.951,VALID,25.4703,VALID,307,VALID,0,
2016-06-12, 10:26:04,VALID,919.709,VALID,0,VALID,63.5336,VALID,439.112,VALID,25.5289,VALID,339,VALID,0,
2016-06-12, 10:27:04,VALID,919.725,VALID,0,VALID,63.4802,VALID,492.94,VALID,25.5484,VALID,280,VALID,0,
2016-06-12, 10:28:04,VALID,919.695,VALID,0,VALID,61.7954,VALID,589.207,VALID,25.5503,VALID,326,VALID,0,
2016-06-12, 10:29:04,VALID,919.685,VALID,0,VALID,61.5515,VALID,832.347,VALID,25.646,VALID,357,VALID,0,
2016-06-12, 10:30:04,VALID,919.675,VALID,0,VALID,62.0394,VALID,852.008,VALID,25.8823,VALID,356,VALID,0,
2016-06-12, 10:31:04,VALID,919.657,VALID,0,VALID,59.3407,VALID,886.282,VALID,26.019,VALID,285,VALID,0,
2016-06-12, 10:32:04,VALID,919.64,VALID,0,VALID,59.9658,VALID,731.03,VALID,26.0561,VALID,22,VALID,0,
2016-06-12, 10:33:04,VALID,919.654,VALID,0,VALID,59.3407,VALID,661.193,VALID,26.2319,VALID,2,VALID,0,
2016-06-12, 10:34:04,VALID,919.669,VALID,0,VALID,60.0039,VALID,626.382,VALID,26.3882,VALID,303,VALID,0,
2016-06-12, 10:35:04,VALID,919.634,VALID,0,VALID,59.4855,VALID,600.811,VALID,26.4858,VALID,355,VALID,0,
2016-06-12, 10:36:04,VALID,919.605,VALID,0,VALID,59.5389,VALID,591.141,VALID,26.603,VALID,328,VALID,0,
2016-06-12, 10:37:04,VALID,919.604,VALID,0,VALID,57.6406,VALID,700.409,VALID,26.6812,VALID,313,VALID,0,
2016-06-12, 10:38:04,VALID,919.603,VALID,0,VALID,61.0331,VALID,616.39,VALID,26.603,VALID,321,VALID,0,
2016-06-12, 10:39:04,VALID,919.609,VALID,0,VALID,58.6851,VALID,585.554,VALID,26.5269,VALID,293,VALID,0,
2016-06-12, 10:40:04,VALID,919.581,VALID,0,VALID,57.8007,VALID,567.934,VALID,26.3491,VALID,323,VALID,0,
2016-06-12, 10:41:04,VALID,919.583,VALID,0,VALID,57.8007,VALID,562.992,VALID,26.2905,VALID,292,VALID,0,
2016-06-12, 10:42:04,VALID,919.555,VALID,0,VALID,61.3609,VALID,572.661,VALID,26.0561,VALID,288,VALID,0,
2016-06-12, 10:43:04,VALID,919.56,VALID,0,VALID,60.9873,VALID,521.412,VALID,25.978,VALID,307,VALID,0,
2016-06-12, 10:44:04,VALID,919.549,VALID,0,VALID,60.8044,VALID,528.288,VALID,26.0366,VALID,293,VALID,0,
2016-06-12, 10:45:04,VALID,919.549,VALID,0,VALID,62.2757,VALID,473.063,VALID,26.0952,VALID,342,VALID,0,
2016-06-12, 10:46:04,VALID,919.552,VALID,0,VALID,60.9721,VALID,495.196,VALID,26.1928,VALID,19,VALID,0.420312,
2016-06-12, 10:47:04,VALID,919.581,VALID,0,VALID,62.6874,VALID,503.899,VALID,26.1928,VALID,17,VALID,0,
2016-06-12, 10:48:04,VALID,919.609,VALID,0,VALID,62.7102,VALID,500.139,VALID,26.3491,VALID,355,VALID,0,
2016-06-12, 10:49:04,VALID,919.609,VALID,0,VALID,63.1752,VALID,553.322,VALID,26.4252,VALID,339,VALID,0,
2016-06-12, 10:50:04,VALID,919.633,VALID,0,VALID,61.3151,VALID,503.469,VALID,26.3902,VALID,306,VALID,0,
2016-06-12, 10:51:04,VALID,919.641,VALID,0,VALID,60.6671,VALID,566.752,VALID,26.4878,VALID,314,VALID,0,
2016-06-12, 10:52:04,VALID,919.653,VALID,0,VALID,59.1958,VALID,577.496,VALID,26.2534,VALID,289,VALID,0,
2016-06-12, 10:53:04,VALID,919.602,VALID,0,VALID,64.6923,VALID,602.53,VALID,26.0561,VALID,298,VALID,0,
2016-06-12, 10:54:04,VALID,919.623,VALID,0,VALID,61.6048,VALID,547.413,VALID,26.019,VALID,287,VALID,0,
2016-06-12, 10:55:04,VALID,919.619,VALID,0,VALID,63.9833,VALID,535.057,VALID,26.1342,VALID,353,VALID,0.54375,
2016-06-12, 10:56:04,VALID,919.608,VALID,0,VALID,59.8133,VALID,496.163,VALID,26.4488,VALID,3,VALID,0,
2016-06-12, 10:57:04,VALID,919.602,VALID,0,VALID,61.6887,VALID,496.378,VALID,26.5464,VALID,3,VALID,0,
2016-06-12, 10:58:04,VALID,919.599,VALID,0,VALID,63.1524,VALID,473.386,VALID,26.6441,VALID,10,VALID,0,
2016-06-12, 10:59:04,VALID,919.615,VALID,0,VALID,62.1842,VALID,528.61,VALID,26.7202,VALID,312,VALID,0,
2016-06-12, 11:00:04,VALID,919.585,VALID,0,VALID,62.0241,VALID,491.006,VALID,26.566,VALID,289,VALID,0,
2016-06-12, 11:01:04,VALID,919.576,VALID,0,VALID,61.5743,VALID,653.242,VALID,26.564,VALID,276,VALID,0,
2016-06-12, 11:02:04,VALID,919.563,VALID,0,VALID,64.334,VALID,754.989,VALID,26.6636,VALID,293,VALID,0,
2016-06-12, 11:03:04,VALID,919.557,VALID,0,VALID,64.1358,VALID,934.953,VALID,26.8785,VALID,14,VALID,0,
2016-06-12, 11:04:04,VALID,919.581,VALID,0,VALID,61.7268,VALID,649.374,VALID,26.9937,VALID,26,VALID,0,
2016-06-12, 11:05:04,VALID,919.54,VALID,0,VALID,62.1995,VALID,905.944,VALID,27.2107,VALID,17,VALID,0,
2016-06-12, 11:06:04,VALID,919.545,VALID,0,VALID,61.1017,VALID,799.792,VALID,27.4061,VALID,308,VALID,0,
2016-06-12, 11:07:04,VALID,919.528,VALID,0,VALID,60.6367,VALID,846.421,VALID,27.5408,VALID,279,VALID,0,
2016-06-12, 11:08:04,VALID,919.517,VALID,0,VALID,59.173,VALID,673.978,VALID,27.6992,VALID,265,VALID,0,
2016-06-12, 11:09:04,VALID,919.552,VALID,0,VALID,59.1272,VALID,712.657,VALID,27.6385,VALID,41,VALID,0,
2016-06-12, 11:10:04,VALID,919.52,VALID,0,VALID,61.4295,VALID,644.217,VALID,27.5017,VALID,315,VALID,0,
2016-06-12, 11:11:04,VALID,919.531,VALID,0,VALID,61.5133,VALID,458.774,VALID,27.3258,VALID,287,VALID,0,
2016-06-12, 11:12:04,VALID,919.522,VALID,0,VALID,63.2362,VALID,690.954,VALID,27.4061,VALID,4,VALID,0,
2016-06-12, 11:13:04,VALID,919.525,VALID,0,VALID,60.812,VALID,869.521,VALID,27.2086,VALID,271,VALID,0.291797,
2016-06-12, 11:14:04,VALID,919.537,VALID,0,VALID,62.1003,VALID,866.62,VALID,26.9351,VALID,288,VALID,0,
2016-06-12, 11:15:04,VALID,919.524,VALID,0,VALID,63.6174,VALID,846.744,VALID,27.0328,VALID,8,VALID,0.728906,
2016-06-12, 11:16:04,VALID,919.486,VALID,0,VALID,63.221,VALID,850.934,VALID,27.2477,VALID,32,VALID,0.224609,
2016-06-12, 11:17:04,VALID,919.485,VALID,0,VALID,61.6658,VALID,811.503,VALID,27.2868,VALID,17,VALID,0.405469,